GW5538 Weather Reports


time (UTC)temp
C
wind
direction
speed
KPH
gust
KPH
rain 1hr
cm
rain 24hr
cm
rain mn
cm
humidity
%
barometer
mb
20260906035423 11 260 8.0 11.3 0.00 0.15 0.15 95 1007.5
20260906034919 11 317 4.8 9.7 0.00 0.15 0.15 95 1007.5
20260906034419 11 221 4.8 11.3 0.00 0.15 0.15 95 1007.6
20260906033915 11 266 9.7 11.3 0.00 0.15 0.15 95 1007.8
20260906033414 11 230 6.4 11.3 0.00 0.15 0.15 95 1007.5
20260906032910 11 265 6.4 14.5 0.00 0.15 0.15 95 1007.4
20260906032406 11 243 9.7 12.9 0.00 0.15 0.15 95 1007.3
20260906031900 11 198 6.4 14.5 0.00 0.15 0.15 95 1007.4
20260906031356 11 228 9.7 16.1 0.00 0.15 0.15 95 1007.3
20260906030851 11 174 3.2 14.5 0.00 0.15 0.15 95 1007.2
20260906030346 11 306 8.0 11.3 0.00 0.15 0.15 95 1007.2
20260906025840 11 225 4.8 12.9 0.00 0.15 0.15 95 1006.9
20260906025334 11 200 4.8 6.4 0.00 0.15 0.15 95 1007.3
20260906024833 11 151 4.8 12.9 0.00 0.15 0.15 94 1007.0
20260906024333 11 292 6.4 9.7 0.00 0.15 0.15 94 1007.0
20260906023828 11 261 11.3 14.5 0.00 0.15 0.15 94 1006.9
20260906023325 11 257 6.4 9.7 0.00 0.15 0.15 94 1006.8
20260906022820 11 294 8.0 11.3 0.18 0.15 0.15 94 1007.0
20260906022315 11 225 6.4 12.9 0.18 0.15 0.15 94 1006.9
20260906021811 11 254 8.0 11.3 0.30 0.13 0.13 94 1006.7
20260906021310 11 273 8.0 20.9 0.61 0.13 0.13 93 1007.0
20260906020809 11 253 17.7 20.9 0.43 0.08 0.08 93 1006.8
20260906020309 11 257 9.7 16.1 0.13 0.03 0.03 93 1006.7
20260906015804 11 274 4.8 11.3 0.00 0.00 0.00 93 1006.6
20260906015305 11 223 6.4 11.3 0.00 0.00 0.00 93 1006.4
20260906014757 11 255 4.8 11.3 0.00 0.00 0.00 93 1006.6
20260906014253 11 242 6.4 14.5 0.00 0.00 0.00 93 1006.6
20260906013749 12 222 9.7 11.3 0.00 0.00 0.00 93 1006.7
20260906013249 12 237 6.4 11.3 0.00 0.00 0.00 92 1006.8
20260906012744 12 18 4.8 9.7 0.00 0.00 0.00 93 1006.8
20260906012239 12 277 9.7 17.7 0.00 0.00 0.00 93 1006.6
20260906011734 12 266 8.0 11.3 0.00 0.00 0.00 93 1006.7
20260906011234 12 297 8.0 17.7 0.00 0.00 0.00 93 1006.6
20260906010730 12 259 11.3 14.5 0.00 0.00 0.00 93 1006.8
20260906010226 12 309 4.8 11.3 0.00 0.00 0.00 93 1006.6
20260906005721 12 92 4.8 11.3 0.00 0.00 0.00 93 1006.7
20260906005220 12 246 12.9 16.1 0.00 0.00 0.00 93 1006.6
20260906004719 11 261 4.8 14.5 0.00 0.00 0.00 93 1006.6
20260906004214 11 309 6.4 16.1 0.00 0.00 0.00 93 1006.7
20260906003709 11 210 9.7 16.1 0.00 0.00 0.00 92 1006.6
20260906003205 11 232 11.3 14.5 0.00 0.00 0.00 92 1006.6
20260906002705 12 243 14.5 17.7 0.00 0.00 0.00 92 1006.8
20260906002200 12 220 6.4 12.9 0.00 0.00 0.00 92 1006.6
20260906001655 12 232 6.4 6.4 0.00 0.00 0.00 92 1006.7
20260906001155 12 267 8.0 17.7 0.00 0.00 0.00 91 1006.6
20260906000651 12 271 6.4 16.1 0.00 0.00 0.00 91 1006.6
20260906000146 12 53 6.4 16.1 0.00 0.00 0.00 91 1006.6
20260905235645 12 245 12.9 16.1 0.00 0.00 0.00 91 1006.5
20260905235140 12 245 9.7 14.5 0.00 0.00 0.00 91 1006.6
20260905234635 12 260 11.3 14.5 0.00 0.00 0.00 91 1006.5
20260905234132 12 238 9.7 17.7 0.00 0.00 0.00 91 1006.5
20260905233632 12 266 9.7 12.9 0.00 0.00 0.00 91 1006.8
20260905233125 12 257 6.4 16.1 0.00 0.00 0.00 91 1006.6
20260905232621 12 260 9.7 20.9 0.00 0.00 0.00 91 1006.8
20260905232117 12 269 9.7 17.7 0.00 0.00 0.00 91 1006.8
20260905231617 12 233 6.4 12.9 0.00 0.00 0.00 91 1006.5
20260905231113 12 281 9.7 17.7 0.00 0.00 0.00 91 1006.4
20260905230609 12 242 11.3 14.5 0.00 0.00 0.00 91 1006.6
20260905230107 12 270 9.7 12.9 0.00 0.00 0.00 91 1006.6
20260905225606 12 267 6.4 17.7 0.00 0.00 0.00 91 1006.6
20260905225101 12 268 9.7 16.1 0.00 0.00 0.00 91 1006.6
20260905224601 12 253 11.3 14.5 0.00 0.00 0.00 91 1006.5
20260905224101 12 16 9.7 14.5 0.00 0.00 0.00 91 1006.8
20260905223558 12 249 9.7 17.7 0.00 0.00 0.00 91 1006.7
20260905223054 12 284 9.7 17.7 0.00 0.00 0.00 91 1006.5
20260905222554 12 318 9.7 12.9 0.00 0.00 0.00 91 1006.6
20260905222049 12 246 3.2 16.1 0.00 0.00 0.00 90 1006.5
20260905221545 12 293 6.4 12.9 0.00 0.00 0.00 90 1006.6
20260905221042 12 279 8.0 16.1 0.00 0.00 0.00 90 1006.7
20260905220537 12 247 8.0 16.1 0.00 0.00 0.00 90 1006.4
20260905220033 12 227 14.5 16.1 0.00 0.00 0.00 90 1006.5
20260905215532 12 264 9.7 16.1 0.00 0.00 0.00 90 1006.6
20260905215029 12 277 11.3 14.5 0.00 0.00 0.00 90 1006.6
20260905214524 12 190 3.2 12.9 0.00 0.00 0.00 90 1006.7
20260905214019 12 236 6.4 14.5 0.00 0.00 0.00 90 1006.7
20260905213514 12 283 4.8 16.1 0.00 0.00 0.00 90 1006.7
20260905213010 12 246 9.7 17.7 0.00 0.00 0.00 90 1006.6
20260905212505 12 205 14.5 20.9 0.00 0.00 0.00 90 1006.7
20260905212004 12 238 12.9 16.1 0.00 0.00 0.00 91 1006.8
20260905211459 12 339 3.2 16.1 0.00 0.00 0.00 91 1006.8
20260905210955 12 241 8.0 16.1 0.00 0.00 0.00 91 1006.6
20260905210450 12 326 6.4 17.7 0.00 0.00 0.00 91 1006.8
20260905205949 12 331 4.8 14.5 0.00 1.17 1.17 91 1006.6
20260905205444 12 304 6.4 22.5 0.00 1.17 1.17 91 1006.7
20260905204943 12 238 6.4 17.7 0.00 1.17 1.17 91 1006.6
20260905204439 12 254 9.7 14.5 0.00 1.17 1.17 91 1006.7
20260905203938 12 239 6.4 16.1 0.00 1.17 1.17 91 1006.7
20260905203434 12 225 8.0 17.7 0.00 1.17 1.17 91 1006.6
20260905202930 12 248 9.7 14.5 0.00 1.17 1.17 91 1006.6
20260905202425 12 208 8.0 14.5 0.00 1.17 1.17 91 1006.7
20260905201920 12 258 9.7 14.5 0.00 1.17 1.17 91 1006.6
20260905201416 12 257 9.7 20.9 0.00 1.17 1.17 91 1006.5
20260905200915 12 236 8.0 14.5 0.00 1.17 1.17 91 1006.5
20260905200411 12 297 8.0 20.9 0.00 1.17 1.17 91 1006.4
20260905195909 12 258 9.7 16.1 0.00 1.17 1.17 91 1006.6
20260905195404 12 247 17.7 24.1 0.00 1.17 1.17 91 1006.5
20260905194900 12 205 6.4 12.9 0.00 1.17 1.17 91 1006.7
20260905194359 12 229 11.3 24.1 0.00 1.17 1.17 91 1006.4
20260905193854 12 252 8.0 17.7 0.00 1.17 1.17 91 1006.6
20260905193354 12 208 9.7 16.1 0.00 1.17 1.17 91 1006.8
20260905192849 12 225 11.3 12.9 0.00 1.17 1.17 91 1006.7
20260905192345 12 222 8.0 12.9 0.00 1.17 1.17 91 1006.7
20260905191845 12 209 12.9 16.1 0.00 1.17 1.17 91 1006.5
20260905191344 12 211 11.3 22.5 0.00 1.17 1.17 91 1006.6
20260905190843 12 243 9.7 16.1 0.00 1.17 1.17 91 1006.6
20260905190342 13 248 6.4 14.5 0.00 1.17 1.17 91 1006.4
20260905185841 13 230 9.7 11.3 0.00 1.17 1.17 91 1006.4
20260905185337 12 255 16.1 24.1 0.00 1.17 1.17 91 1006.4
20260905184835 12 320 9.7 17.7 0.00 1.17 1.17 91 1006.3
20260905184335 12 237 8.0 20.9 0.00 1.17 1.17 91 1006.4
20260905183833 13 260 16.1 17.7 0.00 1.17 1.17 91 1006.4
20260905183329 13 213 12.9 16.1 0.00 1.17 1.17 91 1006.3
20260905182830 13 266 11.3 22.5 0.00 1.17 1.17 91 1006.4
20260905182329 13 206 9.7 25.7 0.00 1.17 1.17 91 1006.5
20260905181825 13 271 19.3 25.7 0.00 1.17 1.17 91 1006.4
20260905181324 13 242 9.7 22.5 0.00 1.17 1.17 91 1006.5
20260905180823 13 254 8.0 12.9 0.00 1.17 1.17 91 1006.5
20260905180319 13 273 9.7 20.9 0.00 1.17 1.17 90 1006.2
20260905175814 13 251 8.0 20.9 0.00 1.17 1.17 90 1006.6
20260905175308 13 286 9.7 16.1 0.00 1.17 1.17 91 1006.4
20260905174803 13 277 12.9 16.1 0.00 1.17 1.17 90 1006.3
20260905174259 13 242 12.9 20.9 0.00 1.17 1.17 91 1006.2
20260905173755 13 236 6.4 14.5 0.00 1.17 1.17 90 1006.0
20260905173251 13 249 9.7 20.9 0.00 1.17 1.17 90 1006.1
20260905172750 13 213 9.7 20.9 0.00 1.17 1.17 90 1006.1
20260905172249 13 277 11.3 20.9 0.00 1.17 1.17 91 1006.1
20260905171745 13 230 12.9 17.7 0.00 1.17 1.17 91 1006.1
20260905171241 13 232 9.7 16.1 0.00 1.17 1.17 92 1006.1
20260905170738 13 226 8.0 16.1 0.00 1.17 1.17 91 1006.0
20260905170233 13 231 8.0 16.1 0.00 1.17 1.17 91 1005.8
20260905165732 13 248 12.9 16.1 0.00 1.17 1.17 91 1005.8
20260905165228 13 234 8.0 24.1 0.00 1.17 1.17 91 1005.7
20260905164727 13 227 9.7 14.5 0.00 1.17 1.17 91 1006.0
20260905164222 13 236 8.0 17.7 0.00 1.17 1.17 91 1005.8
20260905163718 13 216 14.5 20.9 0.00 1.17 1.17 91 1005.9
20260905163214 13 250 11.3 20.9 0.00 1.17 1.17 91 1005.6
20260905162711 13 233 11.3 17.7 0.00 1.17 1.17 91 1005.7
20260905162210 13 198 9.7 17.7 0.00 1.17 1.17 91 1005.6
20260905161705 13 234 16.1 17.7 0.00 1.17 1.17 91 1005.5
20260905161203 13 250 9.7 16.1 0.00 1.17 1.17 90 1005.6
20260905160702 13 15 6.4 16.1 0.00 1.17 1.17 90 1005.4
20260905160201 13 261 17.7 24.1 0.00 1.17 1.17 91 1005.4
20260905155656 13 214 9.7 14.5 0.00 1.17 1.17 91 1005.4
20260905155155 13 228 9.7 16.1 0.00 1.17 1.17 90 1005.3
20260905154649 13 94 3.2 14.5 0.18 1.17 1.17 90 1005.3
20260905154145 13 264 16.1 25.7 0.97 1.17 1.17 89 1005.5
20260905153641 13 268 9.7 20.9 1.07 1.14 1.14 90 1005.3
20260905153136 13 245 16.1 20.9 0.43 1.02 1.02 89 1005.0
20260905152631 13 255 9.7 22.5 0.13 0.97 0.97 89 1005.1
20260905152125 14 261 11.3 16.1 0.00 0.94 0.94 88 1005.1
20260905151620 14 325 14.5 25.7 0.00 0.94 0.94 88 1004.9
20260905151116 14 241 6.4 17.7 0.00 0.94 0.94 88 1004.9
20260905150611 14 270 9.7 16.1 0.18 0.94 0.94 87 1005.0
20260905150110 14 243 14.5 22.5 0.18 0.94 0.94 86 1004.9
20260905145608 14 252 11.3 17.7 0.00 0.91 0.91 86 1005.0
20260905145102 14 300 9.7 17.7 0.00 0.91 0.91 86 1004.9
20260905144557 14 275 12.9 16.1 0.00 0.91 0.91 88 1005.0
20260905144056 13 227 8.0 20.9 0.00 0.91 0.91 88 1004.9
20260905143555 13 285 11.3 20.9 0.00 0.91 0.91 88 1004.8
20260905143051 13 297 8.0 24.1 0.00 0.91 0.91 87 1004.9
20260905142550 14 259 14.5 25.7 0.00 0.91 0.91 87 1004.8
20260905142049 13 237 9.7 20.9 0.13 0.91 0.91 89 1004.8
20260905141544 13 259 16.1 24.1 0.30 0.91 0.91 87 1004.7
20260905141041 13 286 17.7 20.9 0.18 0.89 0.89 86 1004.6
20260905140541 14 263 17.7 27.4 0.00 0.86 0.86 85 1004.8
20260905140040 14 250 17.7 24.1 0.13 0.86 0.86 85 1004.5
20260905135536 14 252 16.1 46.7 0.13 0.86 0.86 85 1004.4
20260905135037 15 313 12.9 35.4 0.00 0.84 0.84 83 1004.3
20260905134537 15 286 20.9 25.7 0.00 0.84 0.84 83 1004.2
20260905134035 15 257 8.0 17.7 0.00 0.84 0.84 83 1003.9
20260905133531 15 266 6.4 24.1 0.00 0.84 0.84 83 1003.6
20260905133030 15 260 9.7 22.5 0.18 0.84 0.84 82 1003.7
20260905132530 15 246 12.9 20.9 0.18 0.84 0.84 83 1003.6
20260905132025 15 244 8.0 22.5 0.00 0.81 0.81 84 1003.6
20260905131521 15 234 9.7 30.6 0.00 0.81 0.81 83 1003.4
20260905131016 16 290 14.5 17.7 0.00 0.81 0.81 82 1003.4
20260905130515 16 252 12.9 17.7 0.00 0.81 0.81 82 1003.5
20260905130010 16 241 14.5 24.1 0.00 0.81 0.81 83 1003.3
20260905125504 16 273 14.5 24.1 0.00 0.81 0.81 82 1003.3
20260905125000 16 281 11.3 22.5 0.00 0.81 0.81 82 1003.4
20260905124457 16 228 11.3 27.4 0.00 0.81 0.81 83 1003.3
20260905123952 15 247 8.0 16.1 0.00 0.81 0.81 88 1003.4
20260905123448 15 223 4.8 17.7 0.00 0.81 0.81 87 1003.4
20260905122949 15 245 14.5 24.1 0.00 0.81 0.81 86 1003.5
20260905122448 15 238 8.0 17.7 0.00 0.81 0.81 85 1003.4
20260905121944 15 229 11.3 27.4 0.00 0.81 0.81 84 1003.3
20260905121439 16 292 14.5 22.5 0.00 0.81 0.81 81 1003.3
20260905120938 16 251 22.5 29.0 0.00 0.81 0.81 78 1003.2
20260905120433 16 225 12.9 16.1 0.00 0.81 0.81 78 1003.3
20260905115928 16 249 16.1 27.4 0.00 0.81 0.81 77 1003.0
20260905115427 16 239 9.7 24.1 0.00 0.81 0.81 78 1002.9
20260905114922 16 227 9.7 27.4 0.00 0.81 0.81 79 1003.1
20260905114416 16 271 19.3 29.0 0.00 0.81 0.81 79 1003.2
20260905113915 16 230 22.5 29.0 0.00 0.81 0.81 78 1002.9
20260905113410 16 249 16.1 27.4 0.00 0.81 0.81 78 1003.1
20260905112906 16 304 14.5 29.0 0.00 0.81 0.81 79 1003.0
20260905112401 16 323 25.7 29.0 0.00 0.81 0.81 79 1003.1
20260905111851 16 242 9.7 22.5 0.00 0.81 0.81 81 1002.9
20260905111350 16 235 14.5 22.5 0.00 0.81 0.81 81 1003.0
20260905110850 15 243 12.9 29.0 0.00 0.81 0.81 80 1002.9
20260905110350 16 261 11.3 33.8 0.00 0.81 0.81 78 1003.0
20260905105845 15 246 16.1 25.7 0.00 0.81 0.81 79 1003.0
20260905105344 15 251 17.7 33.8 0.00 0.81 0.81 81 1002.9
20260905104838 15 256 24.1 33.8 0.00 0.81 0.81 82 1003.0
20260905104335 15 247 20.9 33.8 0.00 0.81 0.81 82 1002.7
20260905103834 15 254 20.9 27.4 0.00 0.81 0.81 81 1002.7
20260905103330 16 247 16.1 33.8 0.00 0.81 0.81 80 1002.6
20260905102826 16 246 12.9 25.7 0.00 0.81 0.81 80 1002.5
20260905102322 16 269 17.7 37.0 0.00 0.81 0.81 79 1002.5
20260905101817 16 270 29.0 35.4 0.00 0.81 0.81 80 1002.3
20260905101315 16 250 22.5 37.0 0.00 0.81 0.81 80 1002.1
20260905100815 16 262 22.5 29.0 0.00 0.81 0.81 79 1002.0
20260905100311 16 221 14.5 24.1 0.00 0.81 0.81 78 1002.0
20260905095811 16 248 20.9 30.6 0.00 0.81 0.81 80 1002.0
20260905095310 16 246 17.7 25.7 0.00 0.81 0.81 81 1002.2
20260905094805 16 258 16.1 25.7 0.00 0.81 0.81 82 1002.0
20260905094301 16 297 14.5 25.7 0.00 0.81 0.81 81 1001.8
20260905093800 16 278 20.9 33.8 0.00 0.81 0.81 80 1001.7
20260905093255 15 265 12.9 22.5 0.00 0.81 0.81 85 1001.7
20260905092751 15 223 9.7 25.7 0.00 0.81 0.81 86 1001.8
20260905092246 15 256 16.1 24.1 0.00 0.81 0.81 87 1001.7
20260905091746 15 183 9.7 24.1 0.00 0.81 0.81 88 1001.8
20260905091241 15 264 14.5 25.7 0.00 0.81 0.81 88 1001.6
20260905090740 15 279 12.9 20.9 0.00 0.81 0.81 88 1001.7
20260905090237 15 256 9.7 24.1 0.00 0.81 0.81 87 1001.3
20260905085736 15 246 11.3 29.0 0.00 0.81 0.81 87 1001.6
20260905085236 15 274 9.7 25.7 0.00 0.81 0.81 87 1001.5
20260905084735 15 280 19.3 33.8 0.00 0.81 0.81 87 1001.4
20260905084235 15 293 14.5 30.6 0.00 0.81 0.81 88 1001.3
20260905083730 15 297 12.9 24.1 0.30 0.81 0.81 89 1001.2
20260905083226 15 324 16.1 37.0 0.30 0.81 0.81 87 1000.9
20260905082722 15 283 17.7 29.0 0.00 0.76 0.76 84 1000.8
20260905082218 15 230 20.9 37.0 0.00 0.76 0.76 84 1000.8
20260905081718 15 251 20.9 35.4 0.00 0.76 0.76 84 1000.8
20260905081213 15 277 19.3 35.4 0.00 0.76 0.76 84 1000.5
20260905080713 16 243 19.3 25.7 0.00 0.76 0.76 84 1000.8
20260905080212 15 287 16.1 24.1 0.00 0.76 0.76 85 1000.4
20260905075712 15 273 17.7 48.3 0.00 0.76 0.76 85 1000.4
20260905075211 15 265 12.9 27.4 0.00 0.76 0.76 86 1000.2
20260905074710 15 335 11.3 25.7 0.00 0.76 0.76 88 1000.4
20260905074206 15 226 11.3 17.7 0.00 0.76 0.76 89 1000.1
20260905073702 15 303 9.7 16.1 0.00 0.76 0.76 89 1000.1
20260905073157 15 247 11.3 27.4 0.00 0.76 0.76 91 999.9
20260905072656 15 275 8.0 22.5 0.00 0.76 0.76 90 1000.1
20260905072151 15 250 20.9 24.1 0.00 0.76 0.76 91 999.9
20260905071648 15 258 11.3 22.5 0.00 0.76 0.76 91 999.9
20260905071143 14 238 8.0 22.5 0.00 0.76 0.76 91 999.9
20260905070638 14 262 19.3 24.1 0.00 0.76 0.76 92 999.7
20260905070134 14 252 11.3 37.0 0.00 0.76 0.76 92 999.9
20260905065633 14 264 11.3 20.9 0.00 0.76 0.76 91 999.7
20260905065127 14 218 9.7 14.5 0.00 0.76 0.76 91 999.9
20260905064623 14 248 14.5 20.9 0.00 0.76 0.76 91 999.6
20260905064118 14 252 6.4 12.9 0.00 0.76 0.76 92 999.7
20260905063616 14 297 6.4 9.7 0.00 0.76 0.76 92 999.6
20260905063113 13 246 6.4 11.3 0.00 0.76 0.76 92 999.5
20260905062609 13 259 6.4 14.5 0.00 0.76 0.76 93 999.5
20260905062108 13 208 11.3 14.5 0.00 0.76 0.76 93 999.4
20260905061603 13 225 8.0 12.9 0.00 0.76 0.76 94 999.3
20260905061102 13 260 6.4 11.3 0.00 0.76 0.76 94 999.4
20260905060558 13 254 9.7 12.9 0.00 0.76 0.76 95 999.3
20260905060054 13 258 8.0 12.9 0.00 0.76 0.76 95 999.2
20260905055552 13 300 8.0 22.5 0.18 0.76 0.76 96 999.2
20260905055048 13 259 11.3 12.9 0.18 0.76 0.76 96 999.2
20260905054543 13 237 9.7 12.9 0.13 0.74 0.74 96 999.6
20260905054039 13 257 12.9 16.1 0.13 0.74 0.74 96 999.2
20260905053538 13 244 14.5 17.7 0.00 0.71 0.71 96 998.9
20260905053034 13 236 9.7 16.1 0.00 0.71 0.71 97 998.9
20260905052533 13 227 12.9 14.5 0.18 0.71 0.71 96 998.8
20260905052028 13 246 6.4 12.9 0.13 0.69 0.69 96 998.8
20260905051523 13 210 8.0 11.3 0.71 0.69 0.69 97 998.8
20260905051020 13 204 4.8 9.7 0.97 0.66 0.66 96 998.8
20260905050516 13 241 6.4 11.3 0.48 0.56 0.56 96 998.8
20260905050013 13 208 6.4 6.4 0.30 0.51 0.51 96 998.8
20260905045507 13 213 6.4 9.7 0.18 0.48 0.48 96 998.9
20260905045003 13 219 6.4 11.3 0.13 0.46 0.46 96 999.0
20260905044503 13 243 8.0 12.9 0.13 0.46 0.46 96 998.9
20260905043957 13 232 4.8 11.3 0.00 0.43 0.43 96 998.8
20260905043456 13 221 6.4 11.3 0.00 0.43 0.43 96 998.8
20260905042951 13 285 9.7 14.5 0.00 0.43 0.43 97 998.9
20260905042450 13 241 6.4 11.3 0.00 0.43 0.43 97 998.9
20260905041945 13 241 11.3 17.7 0.00 0.43 0.43 97 998.9
20260905041441 13 224 12.9 17.7 0.00 0.43 0.43 97 998.9
20260905040936 13 233 9.7 12.9 0.00 0.43 0.43 97 999.1
20260905040436 13 277 4.8 6.4 0.00 0.43 0.43 97 998.9
20260905035935 12 223 8.0 11.3 0.00 0.43 0.43 97 999.0